Location: Churchill Northern Studies Centre
(58.7378°N, 93.8201°W)
Time: 18:42:17
(UTC-06:00)

BEESAT 3 - Visible Passes

Search period start: 11 December 2018 00:00
Search period end: 21 December 2018 00:00
Orbit: 499 x 514 km, 64.9° (Epoch: 11 December)

Date Brightness Start Highest point End Pass type
(mag) Time Alt. Az. Time Alt. Az. Time Alt. Az.
11 Dec ? 16:09:45 10° SW 16:13:37 83° SE 16:17:32 10° NE visible
11 Dec ? 17:47:43 10° W 17:51:23 39° NNW 17:52:39 30° NNE visible
11 Dec ? 19:25:59 10° WNW 19:27:27 20° NW 19:27:27 20° NW visible
12 Dec ? 17:29:07 10° W 17:32:48 39° NNW 17:34:35 24° NE visible
12 Dec ? 19:07:23 10° WNW 19:09:23 24° NW 19:09:23 24° NW visible
13 Dec ? 17:10:32 10° W 17:14:13 40° NNW 17:16:31 20° NE visible
13 Dec ? 18:48:48 10° WNW 18:51:19 28° NNW 18:51:19 28° NNW visible
14 Dec ? 16:51:56 10° W 16:55:37 40° NNW 16:58:27 16° NE visible
14 Dec ? 18:30:12 10° WNW 18:33:15 32° NNW 18:33:15 32° NNW visible
14 Dec ? 20:07:54 10° NW 20:08:03 11° NW 20:08:03 11° NW visible
15 Dec ? 16:33:19 10° W 16:37:01 41° NNW 16:40:24 12° NE visible
15 Dec ? 18:11:36 10° WNW 18:15:11 33° N 18:15:12 33° N visible
15 Dec ? 19:49:19 10° NW 19:50:00 14° NW 19:50:00 14° NW visible
16 Dec ? 16:14:42 10° W 16:18:25 41° NNW 16:22:08 10° NE visible
16 Dec ? 17:53:00 10° WNW 17:56:35 33° N 17:57:09 32° NNE visible
16 Dec ? 19:30:44 10° NW 19:31:57 19° NW 19:31:57 19° NW visible
17 Dec ? 17:34:24 10° WNW 17:37:58 33° N 17:39:08 27° NE visible
17 Dec ? 19:12:08 10° NW 19:13:55 25° NW 19:13:55 25° NW visible
18 Dec ? 17:15:47 10° WNW 17:19:22 33° N 17:21:08 22° NE visible
18 Dec ? 18:53:32 10° NW 18:55:56 33° NW 18:55:56 33° NW visible
19 Dec ? 16:57:10 10° WNW 17:00:44 33° N 17:03:09 17° ENE visible
19 Dec ? 18:34:56 10° NW 18:37:57 45° NNW 18:37:57 45° NNW visible
19 Dec ? 20:12:31 10° WNW 20:12:46 11° WNW 20:12:46 11° WNW visible
20 Dec ? 16:38:34 10° WNW 16:42:08 33° N 16:45:14 13° ENE visible
20 Dec ? 18:16:20 10° NW 18:20:02 54° NNE 18:20:02 54° NNE visible
20 Dec ? 19:53:54 10° WNW 19:54:51 16° WNW 19:54:51 16° WNW visible
